Time,TemperatureF,DewpointF,PressureIn,WindDirection,WindDirectionDegrees,WindSpeedMPH,WindSpeedGustMPH,Humidity,HourlyPrecipIn,Conditions,Clouds,dailyrainin,SoftwareType,DateUTC
2013-05-16 00:02:00,48.0,46.0,30.16,NW,323,0.0,5.0,93,0.00,,,0.00,,2013-05-16 07:02:00,
2013-05-16 00:12:00,48.0,46.0,30.16,NW,323,0.0,5.0,93,0.00,,,0.00,,2013-05-16 07:12:00,
2013-05-16 00:24:00,48.0,46.0,30.16,NNE,27,1.0,3.0,93,0.00,,,0.00,,2013-05-16 07:24:00,
2013-05-16 00:34:00,48.0,46.0,30.16,NNE,27,0.0,1.0,93,0.00,,,0.00,,2013-05-16 07:34:00,
2013-05-16 00:44:00,48.0,46.0,30.16,NNE,27,0.0,1.0,93,0.00,,,0.00,,2013-05-16 07:44:00,
2013-05-16 00:54:00,48.0,46.0,30.16,NNE,22,0.0,4.0,93,0.00,,,0.00,,2013-05-16 07:54:00,
2013-05-16 01:03:00,48.0,46.0,30.16,North,5,0.0,4.0,93,0.00,,,0.00,,2013-05-16 08:03:00,
2013-05-16 01:13:00,48.0,46.0,30.16,North,5,0.0,4.0,93,0.00,,,0.00,,2013-05-16 08:13:00,
2013-05-16 01:23:00,48.0,46.0,30.15,NE,39,1.0,4.0,93,0.00,,,0.00,,2013-05-16 08:23:00,
2013-05-16 01:34:00,48.0,46.0,30.15,NE,39,1.0,4.0,93,0.00,,,0.00,,2013-05-16 08:34:00,
2013-05-16 01:44:00,48.0,46.0,30.15,NE,39,1.0,4.0,93,0.00,,,0.00,,2013-05-16 08:44:00,
2013-05-16 01:54:00,49.0,47.0,30.14,NE,45,0.0,2.0,93,0.00,,,0.00,,2013-05-16 08:54:00,
2013-05-16 02:03:00,49.0,47.0,30.14,NE,40,0.0,3.0,93,0.00,,,0.00,,2013-05-16 09:03:00,
2013-05-16 02:14:00,49.0,47.0,30.14,NE,34,0.0,0.0,93,0.00,,,0.00,,2013-05-16 09:14:00,
2013-05-16 02:23:00,49.0,47.0,30.14,NE,34,0.0,0.0,93,0.00,,,0.00,,2013-05-16 09:23:00,
2013-05-16 02:35:00,49.0,47.0,30.14,NNE,32,0.0,3.0,93,0.00,,,0.00,,2013-05-16 09:35:00,
2013-05-16 02:45:00,49.0,47.0,30.14,NNE,32,0.0,3.0,93,0.00,,,0.00,,2013-05-16 09:45:00,
2013-05-16 02:55:00,48.0,46.0,30.13,NNE,29,1.0,3.0,93,0.00,,,0.00,,2013-05-16 09:55:00,
2013-05-16 03:04:00,48.0,46.0,30.13,NNE,29,0.0,1.0,93,0.00,,,0.00,,2013-05-16 10:04:00,
2013-05-16 03:14:00,48.0,46.0,30.12,NNE,29,0.0,1.0,94,0.00,,,0.00,,2013-05-16 10:14:00,
2013-05-16 03:24:00,48.0,46.0,30.12,NNE,29,0.0,1.0,94,0.00,,,0.00,,2013-05-16 10:24:00,
2013-05-16 03:35:00,48.0,46.0,30.12,NNE,23,1.0,6.0,94,0.00,,,0.00,,2013-05-16 10:35:00,
2013-05-16 03:45:00,48.0,46.0,30.12,NNE,23,1.0,6.0,94,0.00,,,0.00,,2013-05-16 10:45:00,
2013-05-16 03:56:00,48.0,46.0,30.11,NE,49,0.0,2.0,94,0.00,,,0.00,,2013-05-16 10:56:00,
2013-05-16 04:05:00,48.0,46.0,30.11,NE,49,0.0,1.0,94,0.00,,,0.00,,2013-05-16 11:05:00,
2013-05-16 04:14:00,48.0,46.0,30.11,NE,49,0.0,1.0,94,0.00,,,0.00,,2013-05-16 11:14:00,
2013-05-16 04:25:00,48.0,46.0,30.11,NE,44,0.0,0.0,94,0.00,,,0.00,,2013-05-16 11:25:00,
2013-05-16 04:35:00,48.0,46.0,30.11,NE,44,0.0,1.0,94,0.00,,,0.00,,2013-05-16 11:35:00,
2013-05-16 04:45:00,48.0,46.0,30.11,NE,44,0.0,1.0,94,0.00,,,0.00,,2013-05-16 11:45:00,
2013-05-16 04:56:00,48.0,46.0,30.11,ENE,64,0.0,0.0,94,0.00,,,0.00,,2013-05-16 11:56:00,
2013-05-16 05:05:00,48.0,46.0,30.11,NE,44,0.0,2.0,94,0.00,,,0.00,,2013-05-16 12:05:00,
2013-05-16 05:13:00,48.0,46.0,30.11,NE,44,0.0,2.0,94,0.00,,,0.00,,2013-05-16 12:13:00,
2013-05-16 05:23:00,48.0,46.0,30.11,NE,55,0.0,2.0,94,0.00,,,0.00,,2013-05-16 12:23:00,
2013-05-16 05:34:00,48.0,46.0,30.10,NE,55,0.0,2.0,94,0.00,,,0.00,,2013-05-16 12:34:00,
2013-05-16 05:44:00,48.0,46.0,30.10,NE,55,0.0,2.0,94,0.00,,,0.00,,2013-05-16 12:44:00,
2013-05-16 05:53:00,48.0,46.0,30.11,ENE,58,0.0,1.0,94,0.00,,,0.00,,2013-05-16 12:53:00,
2013-05-16 06:04:00,48.0,46.0,30.11,ENE,57,0.0,2.0,94,0.00,,,0.00,,2013-05-16 13:04:00,
2013-05-16 06:11:00,48.0,46.0,30.11,ENE,57,0.0,2.0,94,0.00,,,0.00,,2013-05-16 13:11:00,
2013-05-16 06:26:00,48.0,47.0,30.11,ENE,57,0.0,0.0,95,0.00,,,0.00,,2013-05-16 13:26:00,
2013-05-16 06:35:00,48.0,47.0,30.11,NE,56,0.0,2.0,95,0.00,,,0.00,,2013-05-16 13:35:00,
2013-05-16 06:43:00,48.0,47.0,30.11,NE,56,0.0,2.0,95,0.00,,,0.00,,2013-05-16 13:43:00,
2013-05-16 06:55:00,48.0,47.0,30.11,North,355,0.0,1.0,95,0.00,,,0.00,,2013-05-16 13:55:00,
2013-05-16 07:04:00,49.0,48.0,30.11,North,350,0.0,2.0,95,0.00,,,0.00,,2013-05-16 14:04:00,
2013-05-16 07:15:00,49.0,48.0,30.11,North,350,0.0,2.0,95,0.00,,,0.00,,2013-05-16 14:15:00,
2013-05-16 07:23:00,49.0,48.0,30.11,North,350,0.0,0.0,95,0.00,,,0.00,,2013-05-16 14:23:00,
2013-05-16 07:37:00,49.0,48.0,30.11,North,350,0.0,0.0,95,0.00,,,0.00,,2013-05-16 14:37:00,
2013-05-16 07:47:00,49.0,48.0,30.11,North,350,0.0,0.0,95,0.00,,,0.00,,2013-05-16 14:47:00,
2013-05-16 07:56:00,49.0,48.0,30.11,North,350,0.0,0.0,96,0.00,,,0.00,,2013-05-16 14:56:00,
2013-05-16 08:08:00,49.0,48.0,30.11,North,350,0.0,1.0,96,0.00,,,0.00,,2013-05-16 15:08:00,
2013-05-16 08:17:00,49.0,48.0,30.11,North,350,0.0,1.0,96,0.00,,,0.00,,2013-05-16 15:17:00,
2013-05-16 08:28:00,50.0,49.0,30.11,North,5,0.0,0.0,96,0.00,,,0.00,,2013-05-16 15:28:00,
2013-05-16 08:40:00,50.0,49.0,30.11,North,5,0.0,1.0,96,0.00,,,0.00,,2013-05-16 15:40:00,
2013-05-16 08:50:00,50.0,49.0,30.11,NNE,19,0.0,2.0,96,0.00,,,0.00,,2013-05-16 15:50:00,
2013-05-16 09:00:00,50.0,49.0,30.11,NNE,19,0.0,2.0,96,0.00,,,0.00,,2013-05-16 16:00:00,
2013-05-16 09:09:00,51.0,50.0,30.11,NNE,19,0.0,0.0,96,0.00,,,0.00,,2013-05-16 16:09:00,
2013-05-16 09:19:00,51.0,50.0,30.11,NNE,19,0.0,0.0,96,0.00,,,0.00,,2013-05-16 16:19:00,
2013-05-16 09:30:00,51.0,50.0,30.12,South,187,0.0,3.0,96,0.00,,,0.00,,2013-05-16 16:30:00,
2013-05-16 09:40:00,51.0,-99.9,30.12,SSE,154,0.0,3.0,96,0.00,,,0.00,,2013-05-16 16:40:00,
2013-05-16 09:50:00,51.0,50.0,30.12,SSE,154,0.0,3.0,96,0.00,,,0.00,,2013-05-16 16:50:00,
2013-05-16 10:00:00,52.0,51.0,30.13,SW,220,0.0,2.0,96,0.00,,,0.00,,2013-05-16 17:00:00,
2013-05-16 10:10:00,52.0,51.0,30.13,East,92,2.0,3.0,96,0.00,,,0.00,,2013-05-16 17:10:00,
2013-05-16 10:20:00,52.0,51.0,30.13,East,92,2.0,3.0,96,0.00,,,0.00,,2013-05-16 17:20:00,
2013-05-16 10:30:00,52.0,51.0,30.13,North,5,0.0,7.0,96,0.00,,,0.00,,2013-05-16 17:30:00,
2013-05-16 10:40:00,52.0,51.0,30.13,North,5,0.0,2.0,96,0.00,,,0.00,,2013-05-16 17:40:00,
2013-05-16 10:50:00,53.0,-99.9,30.13,NE,36,0.0,4.0,95,0.00,,,0.00,,2013-05-16 17:50:00,
2013-05-16 11:00:00,53.0,-99.9,30.13,NE,36,0.0,4.0,95,0.00,,,0.00,,2013-05-16 18:00:00,
2013-05-16 11:10:00,54.0,53.0,30.13,NE,51,0.0,4.0,95,0.00,,,0.00,,2013-05-16 18:10:00,
2013-05-16 11:20:00,54.0,53.0,30.13,NE,51,0.0,4.0,95,0.00,,,0.00,,2013-05-16 18:20:00,
2013-05-16 11:30:00,-999.0,-99.9,30.13,NNE,26,0.0,2.0,84,0.00,,,0.00,,2013-05-16 18:30:00,
2013-05-16 11:40:00,-999.0,-99.9,30.13,NW,313,0.0,3.0,79,0.00,,,0.00,,2013-05-16 18:40:00,
2013-05-16 11:50:00,-999.0,-99.9,30.13,NW,313,0.0,3.0,79,0.00,,,0.00,,2013-05-16 18:50:00,
2013-05-16 12:00:00,-999.0,-99.9,30.13,SW,229,1.0,4.0,72,0.00,,,0.00,,2013-05-16 19:00:00,
2013-05-16 12:10:00,58.0,48.0,30.13,NNE,32,0.0,4.0,70,0.00,,,0.00,,2013-05-16 19:10:00,
2013-05-16 12:20:00,58.0,48.0,30.13,NNE,32,0.0,4.0,70,0.00,,,0.00,,2013-05-16 19:20:00,
2013-05-16 12:30:00,59.0,48.0,30.13,SSW,211,0.0,4.0,68,0.00,,,0.00,,2013-05-16 19:30:00,
2013-05-16 12:40:00,59.0,-99.9,30.13,SE,136,1.0,4.0,69,0.00,,,0.00,,2013-05-16 19:40:00,
2013-05-16 12:50:00,59.0,-99.9,30.13,SE,136,1.0,4.0,69,0.00,,,0.00,,2013-05-16 19:50:00,
2013-05-16 13:00:00,61.0,-99.9,30.13,NNE,22,0.0,5.0,65,0.00,,,0.00,,2013-05-16 20:00:00,
2013-05-16 13:10:00,-999.0,-99.9,30.13,NE,36,2.0,6.0,63,0.00,,,0.00,,2013-05-16 20:10:00,
2013-05-16 13:20:00,62.0,48.0,30.13,NE,37,0.0,3.0,60,0.00,,,0.00,,2013-05-16 20:20:00,
2013-05-16 13:30:00,62.0,48.0,30.13,NE,37,0.0,3.0,60,0.00,,,0.00,,2013-05-16 20:30:00,
2013-05-16 13:40:00,-999.0,-99.9,30.13,NNE,28,3.0,6.0,59,0.00,,,0.00,,2013-05-16 20:40:00,
2013-05-16 13:50:00,61.0,47.0,30.12,NNE,17,0.0,5.0,61,0.00,,,0.00,,2013-05-16 20:50:00,
2013-05-16 14:00:00,61.0,-99.9,30.12,NNE,17,0.0,5.0,61,0.00,,,0.00,,2013-05-16 21:00:00,
2013-05-16 14:10:00,61.0,-99.9,30.12,WNW,292,0.0,6.0,61,0.00,,,0.00,,2013-05-16 21:10:00,
2013-05-16 14:20:00,61.0,47.0,30.12,WNW,292,0.0,6.0,61,0.00,,,0.00,,2013-05-16 21:20:00,
2013-05-16 14:29:00,62.0,48.0,30.11,NNW,348,0.0,1.0,60,0.00,,,0.00,,2013-05-16 21:29:00,
2013-05-16 14:38:00,60.0,46.0,30.11,North,5,1.0,6.0,60,0.00,,,0.00,,2013-05-16 21:38:00,
2013-05-16 14:50:00,60.0,46.0,30.11,North,5,1.0,6.0,60,0.00,,,0.00,,2013-05-16 21:50:00,
2013-05-16 15:00:00,-999.0,-99.9,30.11,NE,40,1.0,4.0,63,0.00,,,0.00,,2013-05-16 22:00:00,
2013-05-16 15:07:00,61.0,48.0,30.11,WNW,287,0.0,5.0,62,0.00,,,0.00,,2013-05-16 22:07:00,
2013-05-16 15:20:00,61.0,48.0,30.11,WNW,287,0.0,5.0,62,0.00,,,0.00,,2013-05-16 22:20:00,
2013-05-16 15:30:00,61.0,47.0,30.11,North,11,0.0,5.0,60,0.00,,,0.00,,2013-05-16 22:30:00,
2013-05-16 15:40:00,60.0,47.0,30.11,NNE,30,0.0,6.0,62,0.00,,,0.00,,2013-05-16 22:40:00,
2013-05-16 15:50:00,60.0,47.0,30.11,NNE,30,0.0,6.0,62,0.00,,,0.00,,2013-05-16 22:50:00,
2013-05-16 16:00:00,61.0,48.0,30.10,NNE,28,0.0,4.0,62,0.00,,,0.00,,2013-05-16 23:00:00,
2013-05-16 16:06:00,60.0,47.0,30.10,NW,323,5.0,13.0,62,0.00,,,0.00,,2013-05-16 23:06:00,
2013-05-16 16:16:00,59.0,48.0,30.10,North,5,0.0,0.0,68,0.00,,,0.00,,2013-05-16 23:16:00,
2013-05-16 16:24:00,59.0,48.0,30.10,North,5,0.0,0.0,68,0.00,,,0.00,,2013-05-16 23:24:00,
2013-05-16 16:34:00,59.0,46.0,30.10,NE,36,0.0,7.0,63,0.00,,,0.00,,2013-05-16 23:34:00,
2013-05-16 16:45:00,59.0,46.0,30.10,NE,36,0.0,7.0,63,0.00,,,0.00,,2013-05-16 23:45:00,
2013-05-16 16:54:00,59.0,47.0,30.10,NNE,19,2.0,5.0,65,0.00,,,0.00,,2013-05-16 23:54:00,
2013-05-16 17:02:00,58.0,47.0,30.10,North,11,0.0,3.0,66,0.00,,,0.00,,2013-05-17 00:02:00,
2013-05-16 17:13:00,58.0,47.0,30.10,North,11,0.0,3.0,66,0.00,,,0.00,,2013-05-17 00:13:00,
2013-05-16 17:22:00,57.0,46.0,30.10,North,9,0.0,6.0,66,0.00,,,0.00,,2013-05-17 00:22:00,
2013-05-16 17:33:00,57.0,46.0,30.10,NNE,26,1.0,7.0,67,0.00,,,0.00,,2013-05-17 00:33:00,
2013-05-16 17:43:00,57.0,46.0,30.10,NNE,26,1.0,7.0,67,0.00,,,0.00,,2013-05-17 00:43:00,
2013-05-16 17:53:00,55.0,45.0,30.10,NNE,16,0.0,3.0,69,0.00,,,0.00,,2013-05-17 00:53:00,
2013-05-16 18:03:00,54.0,44.0,30.10,NNE,31,0.0,4.0,70,0.00,,,0.00,,2013-05-17 01:03:00,
2013-05-16 18:12:00,54.0,44.0,30.10,NNE,31,0.0,4.0,70,0.00,,,0.00,,2013-05-17 01:12:00,
2013-05-16 18:23:00,53.0,45.0,30.10,NE,35,0.0,4.0,73,0.00,,,0.00,,2013-05-17 01:23:00,
2013-05-16 18:31:00,53.0,44.0,30.10,NNE,25,0.0,6.0,72,0.00,,,0.00,,2013-05-17 01:31:00,
2013-05-16 18:43:00,53.0,44.0,30.10,NNE,25,0.0,6.0,72,0.00,,,0.00,,2013-05-17 01:43:00,
2013-05-16 18:52:00,52.0,44.0,30.09,NE,51,0.0,4.0,75,0.00,,,0.00,,2013-05-17 01:52:00,
2013-05-16 19:01:00,51.0,44.0,30.09,NE,50,0.0,3.0,76,0.00,,,0.00,,2013-05-17 02:01:00,
2013-05-16 19:11:00,51.0,44.0,30.09,NE,50,0.0,3.0,76,0.00,,,0.00,,2013-05-17 02:11:00,
2013-05-16 19:21:00,50.0,44.0,30.08,NNE,19,2.0,7.0,79,0.00,,,0.00,,2013-05-17 02:21:00,
2013-05-16 19:32:00,49.0,43.0,30.08,ENE,67,3.0,6.0,80,0.00,,,0.00,,2013-05-17 02:32:00,
2013-05-16 19:41:00,49.0,43.0,30.08,ENE,67,3.0,6.0,80,0.00,,,0.00,,2013-05-17 02:41:00,
2013-05-16 19:53:00,49.0,44.0,30.08,ENE,71,1.0,4.0,82,0.00,,,0.00,,2013-05-17 02:53:00,
2013-05-16 20:01:00,48.0,43.0,30.08,NNE,15,0.0,3.0,83,0.00,,,0.00,,2013-05-17 03:01:00,
2013-05-16 20:11:00,48.0,43.0,30.08,NNE,15,0.0,3.0,83,0.00,,,0.00,,2013-05-17 03:11:00,
2013-05-16 20:22:00,48.0,44.0,30.09,NE,39,0.0,1.0,86,0.00,,,0.00,,2013-05-17 03:22:00,
2013-05-16 20:33:00,47.0,43.0,30.09,NE,39,0.0,0.0,86,0.00,,,0.00,,2013-05-17 03:33:00,
2013-05-16 20:43:00,47.0,43.0,30.09,NE,39,0.0,0.0,86,0.00,,,0.00,,2013-05-17 03:43:00,
2013-05-16 20:53:00,47.0,43.0,30.09,NE,38,0.0,1.0,87,0.00,,,0.00,,2013-05-17 03:53:00,
2013-05-16 21:02:00,46.0,42.0,30.09,NE,38,0.0,1.0,87,0.00,,,0.00,,2013-05-17 04:02:00,
2013-05-16 21:12:00,46.0,42.0,30.09,NE,38,0.0,1.0,87,0.00,,,0.00,,2013-05-17 04:12:00,
2013-05-16 21:23:00,46.0,43.0,30.10,East,95,0.0,5.0,88,0.00,,,0.00,,2013-05-17 04:23:00,
2013-05-16 21:33:00,45.0,42.0,30.10,NE,40,1.0,4.0,89,0.00,,,0.00,,2013-05-17 04:33:00,
2013-05-16 21:43:00,45.0,42.0,30.10,NE,40,1.0,4.0,89,0.00,,,0.00,,2013-05-17 04:43:00,
2013-05-16 21:53:00,45.0,42.0,30.10,NE,39,0.0,3.0,90,0.00,,,0.00,,2013-05-17 04:53:00,
2013-05-16 22:02:00,45.0,43.0,30.10,NNE,33,0.0,4.0,91,0.00,,,0.00,,2013-05-17 05:02:00,
2013-05-16 22:13:00,45.0,43.0,30.10,NNE,33,0.0,4.0,91,0.00,,,0.00,,2013-05-17 05:13:00,
2013-05-16 22:21:00,45.0,43.0,30.11,North,360,0.0,2.0,91,0.00,,,0.00,,2013-05-17 05:21:00,
2013-05-16 22:32:00,45.0,43.0,30.11,North,360,0.0,0.0,91,0.00,,,0.00,,2013-05-17 05:32:00,
2013-05-16 22:42:00,45.0,43.0,30.11,North,360,0.0,0.0,91,0.00,,,0.00,,2013-05-17 05:42:00,
2013-05-16 22:52:00,45.0,43.0,30.11,NNE,13,0.0,2.0,91,0.00,,,0.00,,2013-05-17 05:52:00,
2013-05-16 23:01:00,45.0,43.0,30.11,NNE,13,0.0,2.0,91,0.00,,,0.00,,2013-05-17 06:01:00,
2013-05-16 23:11:00,45.0,43.0,30.11,NNE,13,0.0,2.0,91,0.00,,,0.00,,2013-05-17 06:11:00,
2013-05-16 23:21:00,45.0,43.0,30.11,NNW,338,0.0,3.0,91,0.00,,,0.00,,2013-05-17 06:21:00,
2013-05-16 23:32:00,45.0,43.0,30.11,NNW,338,0.0,1.0,91,0.00,,,0.00,,2013-05-17 06:32:00,
2013-05-16 23:42:00,45.0,43.0,30.11,NNW,338,0.0,1.0,91,0.00,,,0.00,,2013-05-17 06:42:00,
2013-05-16 23:52:00,45.0,43.0,30.10,North,355,0.0,1.0,91,0.00,,,0.00,,2013-05-17 06:52:00,